Wind_Speed
1 1 2 2 2 2 2 2 2 2 1 1 1 1 1 1 1 2 2 2 3 3 3 3 3 3 3 3 3 4 4 5 5 5 5 5 5 5 4 4 4 4 5 5 5 5 5 5 5
1 1 1 2 2 2 2 2 2 2 1 1 1 1 1 1 1 1 2 3 3 3 3 3 4 4 4 4 4 4 4 5 5 5 5 5 5 5 5 5 5 5 5 5 5 5 5 5 6
1 1 1 1 1 2 2 2 2 2 1 1 1 1 2 2 2 2 2 2 2 3 3 4 4 4 4 5 4 5 5 6 6 6 6 6 6 6 6 6 6 6 5 5 5 5 6 6 6
1 2 2 1 1 1 2 2 2 2 2 2 2 1 2 2 2 2 2 3 3 3 3 4 4 4 5 5 5 5 6 6 6 6 6 6 6 6 7 7 7 6 6 6 5 5 6 7 7
2 2 2 1 1 1 2 2 2 2 2 2 2 2 2 2 3 3 3 3 3 3 3 4 4 5 5 5 5 5 5 5 6 6 6 6 6 7 7 7 7 7 7 6 6 6 6 7 7
2 2 1 1 1 2 2 2 3 3 3 3 3 3 3 3 3 3 3 4 4 3 3 4 4 4 5 5 5 6 6 6 6 6 6 6 7 7 8 8 8 8 8 8 7 7 7 7 8
2 2 2 2 2 3 3 3 3 3 3 4 4 4 4 4 4 4 4 4 4 4 4 4 5 5 5 6 6 7 6 7 7 7 7 7 7 8 8 8 8 9 9 9 9 9 8 8 9
2 3 2 3 3 3 3 4 4 4 4 4 4 5 5 5 5 5 5 5 5 5 5 5 5 5 6 6 7 7 7 7 7 7 6 6 6 7 8 8 9 9 9 9 10 10 10 9 9
3 3 3 3 3 4 4 4 4 4 4 4 5 5 5 5 6 6 6 6 6 6 6 6 6 5 6 6 7 7 7 7 7 7 7 6 6 6 7 8 8 9 9 9 9 10 10 10 10
3 3 3 4 4 4 4 4 4 4 4 5 5 5 6 6 6 6 6 6 7 7 7 7 6 6 6 6 7 8 8 8 7 7 7 7 7 7 7 8 8 8 9 9 9 9 10 10 10
4 4 4 4 4 4 4 5 4 4 4 5 5 5 6 5 5 6 6 6 7 7 7 7 6 6 7 7 7 7 8 8 8 8 8 8 8 7 8 8 8 8 8 8 9 10 10 10 10
5 5 5 5 5 4 5 5 5 5 5 6 5 6 5 5 6 6 6 7 7 7 7 7 7 7 7 7 7 8 8 8 8 8 8 8 8 8 9 8 8 8 8 8 9 9 10 10 11
5 6 6 6 5 5 5 5 5 6 6 6 6 6 5 5 6 7 7 7 7 7 7 7 8 8 8 8 8 8 8 7 7 8 8 8 9 8 8 7 7 7 8 8 9 9 9 9 9
6 6 6 6 6 6 6 6 6 6 7 6 6 6 6 6 7 7 7 7 7 7 7 8 8 8 8 8 9 9 8 8 8 8 8 8 9 8 8 7 7 7 7 7 8 8 8 8 9
6 6 6 6 7 7 7 7 7 7 7 7 7 7 7 7 7 7 7 7 8 8 7 8 8 9 9 9 9 9 9 8 8 8 8 8 8 8 8 7 7 7 7 8 8 8 9 9 9
6 6 7 7 8 8 8 8 8 8 8 7 8 8 8 8 8 8 8 8 8 8 8 8 8 8 9 9 9 9 9 8 8 8 8 8 8 7 7 7 7 7 7 8 9 9 9 9 9
7 7 7 8 8 8 9 9 9 8 8 8 8 8 8 8 8 8 8 8 8 8 8 8 8 8 8 9 9 8 8 8 8 8 8 7 7 7 6 7 7 7 7 7 8 8 9 9 9
8 8 8 8 8 8 8 9 9 8 8 7 7 8 8 8 8 8 8 8 8 8 8 8 8 8 8 8 8 8 8 8 7 7 7 6 6 6 6 7 7 7 7 7 7 7 8 8 8
9 9 9 9 8 8 8 8 8 8 8 7 7 7 8 8 8 8 8 8 8 8 8 8 8 8 8 8 7 7 7 7 6 6 7 6 6 6 6 6 7 7 7 7 7 8 7 7 8
9 9 10 9 9 9 9 8 8 8 8 7 7 7 7 8 8 8 8 8 8 8 8 8 8 7 7 7 7 7 7 6 6 6 6 6 7 7 6 6 6 6 6 7 7 8 7 7 8
10 10 10 10 9 10 10 9 9 8 8 8 8 7 7 8 8 8 9 9 9 8 8 8 8 7 6 7 7 7 6 6 6 6 6 5 6 6 6 6 6 6 6 6 7 7 8 8 8
11 11 11 11 10 11 11 11 9 10 9 9 8 8 8 8 8 9 9 9 9 9 8 8 7 6 6 6 7 6 6 6 6 6 6 6 6 6 6 6 6 6 6 7 7 7 7 7 8
13 12 12 12 11 12 11 12 11 11 10 9 9 9 8 8 9 9 9 9 9 9 9 8 7 7 7 7 7 7 6 6 5 5 6 6 6 6 6 6 6 6 7 7 7 7 7 7 8
14 14 13 13 13 13 12 12 11 11 10 10 10 10 9 9 10 10 10 10 9 9 9 9 8 8 8 7 7 7 6 6 6 6 6 6 6 6 6 7 6 7 7 7 7 7 7 7 7
14 14 14 14 14 14 13 13 13 12 11 11 11 11 10 10 10 10 10 10 10 10 10 9 9 8 8 8 8 7 7 6 6 6 6 6 6 7 7 6 6 6 6 7 7 7 7 7 7
14 14 14 15 15 15 15 15 14 13 12 12 12 12 11 11 11 11 11 11 11 11 11 10 10 9 9 9 9 8 8 7 7 7 7 7 7 7 7 7 7 7 7 7 7 7 7 7 7
15 15 15 16 16 16 16 16 16 15 13 12 12 12 12 12 12 12 12 12 12 11 11 11 11 10 10 10 10 9 9 8 8 8 8 7 8 8 8 7 7 7 7 7 7 8 8 8 8
16 16 16 16 16 17 17 17 16 15 14 14 14 14 13 13 13 13 13 13 13 12 12 12 12 12 11 11 10 10 10 9 8 9 8 8 8 8 7 7 7 8 8 8 8 8 8 8 8
17 17 17 17 18 18 18 18 17 15 15 15 15 15 15 15 14 14 14 14 14 14 13 12 12 12 12 12 12 12 11 10 10 9 9 9 9 9 8 8 8 8 8 8 8 8 8 8 8
18 18 18 19 19 19 19 20 18 17 17 17 17 17 17 16 16 16 15 15 15 15 14 14 14 13 13 13 13 12 11 11 11 11 10 10 10 10 9 9 9 9 9 8 8 8 8 9 9
Wind_Direction
37 24 14 27 27 20 20 5 356 349 357 347 338 331 324 302 292 297 297 297 295 293 297 292 273 272 274 280 284 282 267 263 268 263 257 259 259 258 264 265 257 255 246 237 237 244 243 233 221
359 12 13 14 16 12 15 6 359 348 337 338 330 321 330 308 301 306 306 312 303 292 291 292 284 285 281 279 277 276 270 263 265 269 267 265 263 262 264 257 254 253 250 244 244 243 244 235 223
311 345 348 360 4 347 353 354 -0 10 2 350 344 336 334 328 314 307 311 318 313 298 291 292 290 283 272 270 268 267 269 271 272 271 268 265 263 259 257 256 253 251 251 246 243 239 241 237 228
308 309 299 308 324 322 332 331 332 340 349 344 333 332 314 311 308 305 311 317 312 303 293 292 291 285 273 268 270 269 269 268 272 272 268 266 265 264 259 259 255 258 256 247 242 240 242 236 232
287 292 275 271 294 309 312 313 310 318 312 304 304 301 293 297 304 305 308 315 312 302 299 299 292 284 272 265 270 274 271 271 270 272 269 266 262 261 262 264 262 261 259 252 248 249 246 238 236
272 277 260 266 278 304 301 299 291 293 297 294 291 291 288 290 295 304 305 310 309 302 299 304 293 283 274 270 274 276 275 273 272 271 270 268 262 261 265 268 267 262 262 260 258 253 253 247 243
260 254 248 267 279 294 290 290 282 278 287 287 284 284 288 288 289 296 300 304 305 299 297 296 288 279 274 273 275 277 278 276 274 271 272 271 266 265 267 268 267 261 261 261 257 256 256 253 250
264 261 259 273 282 292 293 288 286 282 282 281 279 280 284 287 290 293 294 297 298 294 293 291 289 283 277 277 277 277 279 278 275 274 274 273 269 270 272 270 269 264 260 260 259 260 258 256 254
256 260 262 267 275 288 294 294 294 288 283 279 277 284 293 292 294 293 290 292 294 292 291 289 289 286 283 281 285 286 286 281 275 275 275 273 274 271 270 267 266 265 260 257 258 259 256 254 255
263 266 265 269 274 282 292 298 304 298 289 286 282 285 292 292 296 298 294 290 290 288 288 284 286 286 287 287 289 289 289 288 279 275 275 275 274 274 270 264 266 266 259 255 257 257 256 255 254
271 271 273 275 273 278 289 292 296 298 294 291 289 288 288 288 294 297 297 297 295 289 286 284 283 286 288 288 291 293 294 289 284 275 273 273 276 276 273 271 269 266 263 259 261 258 258 256 255
270 270 271 270 272 277 287 287 288 292 293 293 291 292 288 289 295 298 299 300 293 289 287 285 283 286 291 291 291 294 295 288 284 276 275 276 277 277 275 273 272 269 264 261 261 261 260 259 257
271 270 268 267 271 275 286 289 289 291 292 291 291 291 291 294 294 296 297 298 300 293 287 285 285 287 290 290 289 291 293 289 281 278 275 278 278 278 275 272 269 267 266 262 258 259 258 256 256
274 272 268 267 270 275 283 291 293 294 290 285 286 287 287 292 293 294 296 297 296 291 287 285 285 286 287 287 289 290 291 290 286 286 281 282 282 277 272 266 263 263 265 263 259 260 260 256 256
275 275 274 272 272 275 279 285 291 291 288 285 284 286 288 290 289 290 294 296 295 292 287 285 285 286 285 286 289 290 289 290 288 286 284 281 279 276 269 266 263 261 260 260 258 260 257 254 255
271 273 275 276 276 275 277 283 285 286 286 286 285 285 287 289 291 291 292 293 294 290 288 288 286 286 285 286 289 288 288 286 287 287 284 281 277 274 268 265 266 264 261 260 260 260 258 256 256
268 272 274 276 276 277 275 279 283 283 284 285 284 285 286 288 293 291 290 289 289 289 290 289 287 286 287 288 290 289 289 287 286 285 282 279 274 272 267 263 262 263 265 266 264 262 259 257 257
265 268 273 277 277 278 279 279 284 284 281 278 279 282 283 286 292 292 288 288 289 290 290 288 287 286 288 291 292 291 289 286 284 281 277 274 271 269 269 268 263 264 267 267 266 262 259 256 257
263 266 271 275 278 278 278 279 282 284 283 277 276 278 279 283 289 292 291 291 291 291 293 293 292 289 288 290 293 294 293 287 281 276 272 268 269 271 267 270 268 266 267 268 265 262 260 258 257
267 269 271 271 275 276 276 277 277 281 287 286 280 279 279 279 287 289 289 291 291 291 295 297 295 292 292 292 295 295 294 289 283 277 275 270 267 267 265 271 269 268 271 267 263 260 262 262 258
268 270 270 272 276 278 278 276 276 280 282 281 279 277 277 279 286 289 289 291 291 290 295 296 295 291 291 290 293 293 293 292 290 281 278 281 277 268 271 272 266 265 271 272 265 260 262 262 261
266 268 272 274 275 276 276 276 275 279 280 279 277 274 274 277 283 286 289 290 289 288 290 293 289 286 291 292 292 295 295 294 288 283 280 281 281 274 272 273 267 266 273 274 267 261 261 264 267
263 266 270 273 273 274 274 273 275 276 276 276 272 270 273 276 282 284 287 288 286 285 285 287 287 285 290 290 287 291 296 295 290 283 282 280 276 271 271 275 272 272 272 275 268 264 265 266 268
265 267 269 270 270 269 271 272 274 276 274 273 270 269 271 275 279 282 284 285 284 282 282 281 283 283 284 285 285 288 292 292 288 281 279 278 276 273 272 274 271 275 276 278 274 266 266 267 269
265 267 268 268 267 267 268 268 271 272 273 271 268 268 269 272 275 278 279 281 282 282 280 279 279 278 278 280 282 285 290 291 286 279 275 276 277 274 274 272 272 277 279 277 277 271 264 265 269
263 263 263 265 266 268 268 267 269 268 267 267 265 265 266 270 273 277 279 282 282 281 279 277 276 274 274 274 275 278 282 288 288 281 275 275 276 278 277 271 271 276 281 281 277 275 270 267 271
262 262 264 264 265 267 269 268 269 267 265 264 264 265 266 269 273 276 278 279 278 278 277 277 274 273 275 274 274 276 278 283 287 281 274 274 276 278 275 268 267 273 279 280 276 276 274 270 272
261 262 262 264 267 269 270 270 271 268 262 261 262 263 267 270 273 275 276 276 275 276 274 276 274 272 274 276 276 278 276 278 282 282 276 274 276 277 273 267 269 273 277 279 277 276 273 270 272
261 260 261 264 265 267 271 272 271 268 263 262 262 263 264 266 269 271 273 273 273 273 270 272 273 271 271 272 274 275 275 275 276 276 273 275 276 272 272 272 276 278 278 281 280 275 273 272 272
263 261 261 263 265 267 268 270 271 268 266 264 263 263 263 264 265 268 269 271 272 271 269 270 270 270 271 271 272 273 273 272 271 271 270 274 274 272 271 272 276 277 278 277 281 278 272 269 270
Height
5886 5886 5886 5887 5888 5887 5886 5886 5886 5885 5885 5884 5884 5883 5883 5883 5883 5885 5882 5880 5880 5879 5879 5878 5878 5878 5877 5877 5877 5876 5876 5876 5875 5875 5875 5874 5874 5874 5874 5874 5874 5873 5873 5873 5873 5873 5873 5873 5873
5886 5886 5887 5887 5887 5887 5887 5886 5885 5884 5884 5883 5883 5883 5882 5882 5882 5881 5880 5880 5879 5878 5878 5877 5877 5877 5877 5876 5876 5876 5875 5875 5875 5874 5874 5874 5873 5873 5873 5873 5873 5873 5872 5872 5872 5872 5872 5872 5872
5885 5886 5887 5887 5886 5886 5886 5885 5885 5884 5883 5883 5883 5882 5882 5882 5881 5880 5880 5879 5878 5878 5877 5877 5876 5876 5876 5875 5875 5875 5875 5874 5874 5873 5873 5873 5872 5872 5872 5872 5871 5871 5871 5871 5871 5871 5871 5871 5871
5885 5886 5887 5886 5885 5886 5885 5885 5884 5884 5883 5883 5882 5882 5881 5881 5880 5880 5879 5878 5878 5877 5876 5876 5876 5875 5875 5874 5874 5874 5874 5873 5873 5872 5872 5872 5871 5871 5870 5870 5870 5870 5870 5870 5870 5870 5870 5870 5870
5885 5886 5886 5885 5885 5885 5885 5884 5883 5883 5883 5882 5882 5881 5881 5881 5880 5879 5878 5878 5877 5876 5875 5875 5875 5874 5874 5873 5873 5873 5872 5872 5872 5871 5871 5870 5870 5870 5869 5869 5869 5869 5868 5868 5868 5868 5868 5868 5869
5885 5885 5885 5885 5885 5884 5884 5883 5883 5882 5882 5881 5881 5881 5880 5880 5879 5878 5877 5877 5876 5875 5875 5874 5874 5873 5873 5872 5872 5872 5871 5871 5870 5870 5869 5869 5869 5868 5868 5868 5867 5867 5867 5867 5867 5867 5867 5867 5867
5885 5884 5884 5884 5884 5884 5883 5883 5882 5882 5881 5881 5880 5880 5879 5878 5878 5877 5877 5876 5875 5874 5874 5873 5872 5872 5871 5871 5871 5870 5870 5869 5869 5869 5868 5867 5867 5867 5866 5866 5866 5865 5865 5865 5865 5865 5865 5865 5865
5883 5884 5883 5883 5883 5883 5883 5882 5881 5881 5880 5880 5879 5879 5878 5878 5877 5876 5875 5875 5874 5873 5873 5872 5871 5871 5870 5870 5869 5869 5868 5868 5868 5867 5867 5866 5866 5865 5865 5864 5864 5864 5863 5863 5863 5863 5863 5863 5863
5883 5884 5882 5882 5883 5882 5882 5881 5881 5880 5879 5879 5878 5877 5877 5876 5875 5875 5874 5873 5873 5872 5871 5871 5870 5869 5869 5868 5868 5867 5867 5866 5866 5865 5865 5864 5864 5863 5862 5862 5862 5861 5861 5861 5861 5861 5861 5861 5861
5882 5882 5882 5882 5881 5881 5881 5880 5880 5879 5878 5878 5877 5876 5875 5875 5874 5874 5873 5872 5871 5871 5870 5869 5869 5868 5868 5867 5866 5866 5865 5864 5864 5864 5863 5862 5862 5861 5860 5860 5860 5859 5859 5859 5859 5859 5859 5859 5859
5881 5881 5880 5880 5880 5880 5879 5879 5878 5878 5878 5877 5876 5875 5874 5874 5873 5872 5872 5871 5870 5869 5869 5868 5867 5867 5866 5866 5865 5864 5863 5863 5862 5861 5861 5860 5860 5859 5859 5858 5857 5857 5857 5857 5857 5857 5857 5857 5857
5879 5879 5879 5879 5879 5878 5878 5878 5877 5877 5877 5875 5875 5874 5873 5873 5872 5871 5871 5870 5869 5868 5867 5867 5866 5866 5865 5864 5864 5863 5862 5861 5860 5860 5859 5858 5858 5857 5857 5856 5856 5855 5855 5855 5855 5855 5855 5855 5855
5878 5878 5877 5877 5877 5877 5877 5876 5876 5876 5875 5874 5873 5873 5872 5871 5871 5870 5869 5868 5867 5867 5866 5865 5865 5864 5863 5863 5862 5861 5860 5859 5858 5858 5857 5856 5856 5855 5855 5854 5854 5853 5853 5853 5853 5853 5853 5853 5853
5877 5876 5876 5876 5876 5876 5876 5875 5875 5874 5873 5873 5872 5871 5871 5870 5869 5868 5868 5867 5866 5865 5864 5864 5863 5862 5862 5861 5860 5859 5858 5857 5857 5856 5855 5854 5854 5853 5853 5852 5852 5851 5851 5851 5851 5851 5851 5851 5851
5875 5875 5875 5874 5874 5874 5874 5874 5873 5872 5872 5871 5870 5870 5869 5868 5868 5867 5866 5865 5864 5863 5863 5862 5861 5861 5860 5859 5858 5857 5856 5856 5855 5854 5853 5852 5852 5851 5851 5850 5850 5849 5849 5849 5849 5849 5849 5849 5849
5873 5874 5874 5873 5872 5872 5874 5873 5872 5871 5870 5869 5869 5868 5868 5867 5866 5865 5865 5864 5863 5862 5861 5860 5859 5859 5858 5857 5856 5855 5854 5854 5853 5852 5851 5850 5850 5849 5849 5848 5848 5848 5848 5847 5847 5847 5847 5847 5847
5872 5872 5872 5872 5871 5871 5871 5870 5870 5869 5868 5868 5867 5866 5866 5865 5865 5864 5863 5862 5861 5860 5859 5859 5858 5857 5856 5855 5854 5853 5852 5852 5851 5850 5849 5848 5848 5848 5847 5847 5846 5846 5846 5846 5845 5845 5845 5845 5845
5870 5870 5870 5870 5869 5869 5868 5868 5868 5867 5866 5866 5865 5865 5864 5863 5863 5862 5861 5861 5860 5859 5858 5857 5856 5855 5854 5853 5852 5851 5851 5850 5849 5848 5847 5847 5846 5846 5845 5845 5845 5844 5844 5844 5844 5843 5843 5843 5843
5867 5867 5867 5867 5867 5867 5866 5866 5866 5864 5864 5864 5863 5863 5862 5862 5861 5860 5860 5859 5858 5857 5856 5855 5854 5853 5852 5851 5850 5849 5849 5848 5847 5846 5846 5845 5845 5844 5844 5843 5843 5843 5843 5842 5842 5842 5842 5841 5841
5865 5865 5865 5865 5864 5864 5864 5864 5863 5863 5862 5862 5861 5861 5860 5860 5859 5858 5858 5857 5856 5855 5854 5853 5852 5851 5850 5849 5849 5848 5847 5846 5845 5845 5844 5844 5843 5843 5842 5842 5841 5841 5841 5841 5840 5840 5840 5839 5839
5862 5863 5862 5862 5862 5862 5862 5862 5861 5861 5860 5860 5859 5859 5858 5858 5857 5856 5856 5855 5854 5853 5852 5851 5850 5849 5848 5848 5847 5846 5845 5844 5844 5843 5843 5842 5841 5841 5841 5840 5840 5839 5839 5839 5838 5838 5838 5838 5838
5859 5859 5859 5859 5860 5860 5860 5859 5859 5858 5858 5857 5857 5856 5856 5856 5855 5854 5854 5853 5852 5851 5850 5850 5848 5848 5847 5846 5845 5845 5844 5843 5842 5841 5841 5840 5840 5839 5839 5839 5838 5838 5837 5837 5837 5836 5836 5836 5835
5856 5856 5856 5856 5856 5857 5856 5856 5857 5856 5855 5855 5854 5854 5854 5853 5853 5852 5852 5851 5850 5849 5848 5848 5847 5846 5845 5845 5844 5843 5842 5841 5841 5840 5839 5839 5838 5838 5837 5837 5837 5836 5836 5835 5835 5834 5834 5834 5833
5852 5853 5853 5853 5853 5854 5854 5854 5854 5853 5852 5852 5852 5851 5851 5851 5850 5850 5849 5849 5848 5847 5846 5846 5845 5844 5844 5843 5842 5842 5841 5840 5839 5838 5838 5837 5837 5836 5836 5835 5835 5834 5834 5833 5833 5832 5832 5832 5831
5848 5849 5850 5849 5849 5850 5850 5850 5851 5849 5849 5849 5849 5848 5848 5848 5847 5847 5846 5846 5845 5845 5844 5843 5843 5842 5842 5841 5841 5840 5839 5838 5837 5837 5836 5835 5835 5834 5834 5833 5833 5832 5832 5831 5831 5830 5830 5830 5829
5844 5845 5846 5846 5846 5846 5845 5845 5847 5846 5845 5845 5845 5845 5845 5845 5844 5844 5843 5843 5842 5842 5841 5841 5841 5840 5840 5839 5839 5838 5837 5836 5835 5835 5834 5834 5833 5832 5832 5831 5831 5830 5830 5829 5829 5828 5828 5827 5827
5840 5840 5841 5841 5841 5841 5841 5841 5841 5841 5841 5841 5841 5841 5841 5841 5841 5841 5840 5840 5840 5839 5839 5838 5838 5838 5837 5837 5836 5836 5835 5834 5833 5833 5832 5832 5831 5831 5830 5829 5829 5829 5828 5827 5827 5826 5826 5825 5825
5835 5835 5836 5836 5836 5836 5836 5836 5837 5837 5837 5837 5837 5837 5837 5837 5837 5837 5837 5837 5836 5836 5836 5835 5835 5834 5834 5834 5833 5833 5832 5831 5831 5830 5830 5829 5829 5828 5828 5827 5827 5826 5826 5825 5824 5824 5824 5823 5823
5830 5831 5830 5831 5831 5832 5832 5834 5832 5832 5832 5832 5832 5833 5833 5833 5833 5833 5833 5833 5832 5832 5832 5832 5831 5831 5831 5831 5830 5830 5829 5828 5828 5828 5827 5827 5826 5826 5825 5825 5825 5824 5824 5823 5822 5822 5821 5821 5821
5824 5825 5825 5826 5826 5826 5826 5829 5827 5827 5827 5827 5827 5828 5828 5828 5829 5829 5829 5828 5828 5828 5828 5828 5828 5827 5827 5827 5827 5826 5826 5825 5825 5825 5824 5824 5823 5823 5823 5822 5822 5821 5821 5820 5820 5819 5819 5819 5818